Location: Newark
(12.4436°N, 0.6167°W)
Time: 14:39:18
(UTC+00:00)

Vanguard 2 - Pass Details

Date: 17 December 2019
Orbit: 553 x 2938 km, 32.9° (Epoch: 23 January)

Event Time Altitude Azimuth Distance (km) Brightness Sun altitude
Rises 05:47:55 0° 303° (WNW) 6,700 - -7.2°
Exits shadow 05:50:34 - 304° (NW) 6,132 11.5 -6.6°
Reaches altitude 10° 05:52:19 10° 305° (NW) 5,753 11.3 -6.3°
Maximum altitude 06:10:29 81° 32° (NNE) 2,686 10.3 -2.2°
Drops below altitude 10° 06:23:58 10° 118° (ESE) 4,450 13.8 0.8°
Sets 06:26:54 0° 119° (ESE) 5,178 14.9 1.5°
